| time (UTC) | temp C | wind direction | speed KPH | gust KPH | rain 1hr cm | rain 24hr cm | rain mn cm | humidity % | barometer mb |
| 20260509034125 | 12 | 245 | 3.2 | 4.8 | 0.41 | 1.17 | 1.17 | 89 | 1010.3 |
| 20260509033223 | 12 | 271 | 3.2 | 12.9 | 0.33 | 1.07 | 1.07 | 89 | 1010.7 |
| 20260509032324 | 12 | 218 | 11.3 | 16.1 | 0.33 | 1.02 | 1.02 | 89 | 1010.4 |
| 20260509031425 | 12 | 222 | 4.8 | 11.3 | 0.36 | 0.94 | 0.94 | 89 | 1010.5 |
| 20260509030525 | 12 | 257 | 4.8 | 11.3 | 0.36 | 0.89 | 0.89 | 90 | 1010.8 |
| 20260509025624 | 12 | 246 | 8.0 | 12.9 | 0.38 | 0.84 | 0.84 | 90 | 1010.7 |
| 20260509024724 | 12 | 231 | 3.2 | 8.0 | 0.36 | 0.79 | 0.79 | 90 | 1010.7 |
| 20260509022924 | 12 | 217 | 8.0 | 12.9 | 0.36 | 0.71 | 0.71 | 90 | 1010.9 |
| 20260509021125 | 12 | 210 | 8.0 | 12.9 | 0.25 | 0.56 | 0.56 | 90 | 1010.8 |
| 20260509020224 | 12 | 208 | 3.2 | 4.8 | 0.23 | 0.51 | 0.51 | 90 | 1010.7 |
| 20260509015325 | 12 | 194 | 3.2 | 3.2 | 0.20 | 0.46 | 0.46 | 90 | 1010.6 |
| 20260509014425 | 12 | 281 | 1.6 | 1.6 | 0.20 | 0.41 | 0.41 | 89 | 1010.7 |
| 20260509013525 | 12 | 230 | 3.2 | 8.0 | 0.20 | 0.38 | 0.38 | 89 | 1010.4 |
| 20260509012625 | 12 | 202 | 4.8 | 8.0 | 0.18 | 0.36 | 0.36 | 89 | 1010.3 |
| 20260509011723 | 12 | 222 | 1.6 | 3.2 | 0.18 | 0.33 | 0.33 | 89 | 1010.5 |
| 20260509005924 | 12 | 286 | 1.6 | 1.6 | 0.15 | 0.28 | 0.28 | 89 | 1010.4 |
| 20260509005024 | 12 | 226 | 0.0 | 3.2 | 0.10 | 0.23 | 0.23 | 88 | 1010.2 |
| 20260509004125 | 12 | 290 | 1.6 | 3.2 | 0.10 | 0.20 | 0.20 | 88 | 1010.2 |
| 20260509003259 | 12 | 235 | 1.6 | 1.6 | 0.10 | 0.18 | 0.18 | 88 | 1010.0 |
| 20260509003226 | 12 | 235 | 1.6 | 1.6 | 0.10 | 0.18 | 0.18 | 88 | 1010.0 |
| 20260509002324 | 12 | 281 | 1.6 | 3.2 | 0.13 | 0.18 | 0.18 | 87 | 1010.1 |
| 20260509001424 | 12 | 282 | 1.6 | 1.6 | 0.13 | 0.15 | 0.15 | 87 | 1010.2 |
| 20260509000523 | 12 | 291 | 3.2 | 4.8 | 0.13 | 0.13 | 0.13 | 86 | 1010.3 |
| 20260508235624 | 12 | 285 | 1.6 | 3.2 | 0.13 | 0.13 | 0.13 | 86 | 1010.4 |
| 20260508234725 | 12 | 293 | 3.2 | 3.2 | 0.10 | 0.10 | 0.10 | 85 | 1010.2 |
| 20260508233824 | 12 | 289 | 3.2 | 4.8 | 0.10 | 0.10 | 0.10 | 84 | 1010.2 |
| 20260508232924 | 13 | 322 | 0.0 | 1.6 | 0.08 | 0.08 | 0.08 | 83 | 1010.3 |
| 20260508232025 | 13 | 307 | 3.2 | 4.8 | 0.03 | 0.03 | 0.03 | 81 | 1010.3 |
| 20260508231125 | 13 | 307 | 4.8 | 8.0 | 0.03 | 0.03 | 0.03 | 80 | 1010.5 |
| 20260508230223 | 13 | 303 | 9.7 | 9.7 | 0.00 | 0.00 | 0.00 | 78 | 1010.3 |
| 20260508225324 | 13 | 298 | 12.9 | 16.1 | 0.00 | 0.00 | 0.00 | 75 | 1010.3 |
| 20260508224425 | 15 | 286 | 12.9 | 19.3 | 0.00 | 0.00 | 0.00 | 73 | 1010.3 |
| 20260508223525 | 15 | 292 | 16.1 | 19.3 | 0.00 | 0.00 | 0.00 | 69 | 1010.2 |
| 20260508222626 | 16 | 284 | 12.9 | 19.3 | 0.00 | 0.00 | 0.00 | 67 | 1010.1 |
| 20260508221725 | 16 | 281 | 1.6 | 4.8 | 0.00 | 0.00 | 0.00 | 69 | 1009.9 |
| 20260508220825 | 16 | 224 | 3.2 | 3.2 | 0.00 | 0.00 | 0.00 | 63 | 1009.6 |
| 20260508215924 | 16 | 137 | 1.6 | 3.2 | 0.00 | 0.00 | 0.00 | 62 | 1009.3 |
| 20260508215024 | 17 | 173 | 0.0 | 3.2 | 0.00 | 0.00 | 0.00 | 61 | 1009.3 |
| 20260508214125 | 17 | 223 | 1.6 | 3.2 | 0.00 | 0.00 | 0.00 | 60 | 1009.4 |
| 20260508213223 | 17 | 226 | 0.0 | 1.6 | 0.00 | 0.00 | 0.00 | 61 | 1009.4 |
| 20260508212324 | 17 | 229 | 1.6 | 1.6 | 0.00 | 0.00 | 0.00 | 59 | 1009.6 |
| 20260508211425 | 17 | 239 | 1.6 | 4.8 | 0.00 | 0.00 | 0.00 | 60 | 1009.6 |
| 20260508210525 | 17 | 215 | 3.2 | 3.2 | 0.00 | 0.00 | 0.00 | 58 | 1009.8 |
| 20260508205629 | 17 | 237 | 0.0 | 1.6 | 0.00 | 0.00 | 0.00 | 61 | 1010.0 |
| 20260508204723 | 17 | 250 | 1.6 | 3.2 | 0.00 | 0.00 | 0.00 | 60 | 1010.0 |
| 20260508203824 | 17 | 220 | 1.6 | 1.6 | 0.00 | 0.00 | 0.00 | 60 | 1010.0 |
| 20260508202925 | 17 | 235 | 3.2 | 4.8 | 0.00 | 0.00 | 0.00 | 60 | 1010.2 |
| 20260508201123 | 17 | 278 | 3.2 | 3.2 | 0.00 | 0.00 | 0.00 | 59 | 1010.6 |
| 20260508200224 | 17 | 236 | 9.7 | 14.5 | 0.00 | 0.00 | 0.00 | 58 | 1010.7 |
| 20260508195323 | 17 | 228 | 3.2 | 8.0 | 0.00 | 0.00 | 0.00 | 59 | 1010.8 |
| 20260508194424 | 17 | 227 | 11.3 | 12.9 | 0.00 | 0.00 | 0.00 | 56 | 1010.9 |
| 20260508193524 | 17 | 258 | 8.0 | 12.9 | 0.00 | 0.00 | 0.00 | 57 | 1011.0 |
| 20260508192625 | 17 | 221 | 8.0 | 14.5 | 0.00 | 0.00 | 0.00 | 58 | 1011.1 |
| 20260508191724 | 17 | 247 | 4.8 | 4.8 | 0.00 | 0.00 | 0.00 | 57 | 1011.2 |
| 20260508190825 | 17 | 189 | 8.0 | 14.5 | 0.00 | 0.00 | 0.00 | 58 | 1011.6 |
| 20260508185923 | 17 | 228 | 9.7 | 12.9 | 0.00 | 0.00 | 0.00 | 56 | 1011.7 |
| 20260508185023 | 17 | 230 | 9.7 | 14.5 | 0.00 | 0.00 | 0.00 | 57 | 1011.7 |
| 20260508184125 | 17 | 243 | 11.3 | 19.3 | 0.00 | 0.00 | 0.00 | 56 | 1011.7 |
| 20260508183224 | 17 | 242 | 11.3 | 19.3 | 0.00 | 0.00 | 0.00 | 54 | 1011.7 |
| 20260508182324 | 18 | 232 | 9.7 | 12.9 | 0.00 | 0.00 | 0.00 | 53 | 1011.7 |
| 20260508181424 | 18 | 267 | 8.0 | 11.3 | 0.00 | 0.00 | 0.00 | 56 | 1011.7 |
| 20260508180524 | 18 | 246 | 8.0 | 12.9 | 0.00 | 0.00 | 0.00 | 55 | 1011.9 |
| 20260508175623 | 17 | 250 | 12.9 | 19.3 | 0.00 | 0.00 | 0.00 | 53 | 1012.1 |
| 20260508174725 | 17 | 204 | 11.3 | 19.3 | 0.00 | 0.00 | 0.00 | 53 | 1012.2 |
| 20260508173824 | 17 | 226 | 12.9 | 22.5 | 0.00 | 0.00 | 0.00 | 55 | 1012.4 |
| 20260508172923 | 17 | 227 | 11.3 | 19.3 | 0.00 | 0.00 | 0.00 | 55 | 1012.6 |
| 20260508172025 | 17 | 260 | 8.0 | 12.9 | 0.00 | 0.00 | 0.00 | 59 | 1012.6 |
| 20260508171125 | 16 | 247 | 12.9 | 19.3 | 0.00 | 0.00 | 0.00 | 57 | 1012.8 |
| 20260508170224 | 16 | 258 | 1.6 | 4.8 | 0.00 | 0.00 | 0.00 | 60 | 1012.9 |
| 20260508165324 | 16 | 216 | 12.9 | 20.9 | 0.00 | 0.00 | 0.00 | 56 | 1013.0 |
| 20260508164424 | 16 | 221 | 8.0 | 12.9 | 0.00 | 0.00 | 0.00 | 59 | 1013.1 |
| 20260508163525 | 16 | 259 | 3.2 | 4.8 | 0.00 | 0.00 | 0.00 | 58 | 1013.2 |
| 20260508162624 | 16 | 253 | 9.7 | 12.9 | 0.00 | 0.00 | 0.00 | 58 | 1013.4 |
| 20260508161723 | 17 | 224 | 9.7 | 16.1 | 0.00 | 0.00 | 0.00 | 57 | 1013.6 |
| 20260508160823 | 17 | 267 | 11.3 | 16.1 | 0.00 | 0.00 | 0.00 | 59 | 1013.5 |
| 20260508155924 | 17 | 239 | 4.8 | 12.9 | 0.00 | 0.00 | 0.00 | 61 | 1013.6 |
| 20260508155024 | 16 | 246 | 9.7 | 19.3 | 0.00 | 0.00 | 0.00 | 61 | 1013.6 |
| 20260508154124 | 17 | 238 | 9.7 | 16.1 | 0.00 | 0.00 | 0.00 | 59 | 1013.7 |
| 20260508153223 | 17 | 253 | 11.3 | 19.3 | 0.00 | 0.00 | 0.00 | 58 | 1013.7 |
| 20260508151423 | 16 | 223 | 11.3 | 20.9 | 0.00 | 0.00 | 0.00 | 60 | 1013.7 |
| 20260508150524 | 16 | 247 | 12.9 | 19.3 | 0.00 | 0.00 | 0.00 | 59 | 1013.8 |
| 20260508145623 | 15 | 251 | 12.9 | 19.3 | 0.00 | 0.00 | 0.00 | 59 | 1013.9 |
| 20260508144723 | 15 | 265 | 4.8 | 11.3 | 0.00 | 0.00 | 0.00 | 61 | 1014.0 |
| 20260508143824 | 15 | 252 | 8.0 | 20.9 | 0.00 | 0.00 | 0.00 | 62 | 1014.1 |
| 20260508142923 | 15 | 269 | 9.7 | 9.7 | 0.00 | 0.00 | 0.00 | 61 | 1014.2 |
| 20260508142027 | 14 | 269 | 8.0 | 11.3 | 0.00 | 0.00 | 0.00 | 62 | 1014.3 |
| 20260508141127 | 13 | 270 | 9.7 | 9.7 | 0.00 | 0.00 | 0.00 | 62 | 1014.4 |
| 20260508140224 | 13 | 251 | 12.9 | 19.3 | 0.00 | 0.00 | 0.00 | 61 | 1014.5 |
| 20260508135324 | 13 | 256 | 8.0 | 11.3 | 0.00 | 0.00 | 0.00 | 63 | 1014.5 |
| 20260508134423 | 12 | 251 | 11.3 | 19.3 | 0.00 | 0.00 | 0.00 | 62 | 1014.4 |
| 20260508133523 | 12 | 254 | 4.8 | 12.9 | 0.00 | 0.00 | 0.00 | 65 | 1014.5 |
| 20260508132623 | 12 | 281 | 4.8 | 12.9 | 0.00 | 0.00 | 0.00 | 68 | 1014.6 |
| 20260508131723 | 11 | 279 | 4.8 | 4.8 | 0.00 | 0.00 | 0.00 | 68 | 1014.7 |
| 20260508130827 | 11 | 281 | 3.2 | 9.7 | 0.00 | 0.00 | 0.00 | 68 | 1014.6 |
| 20260508125923 | 10 | 273 | 4.8 | 4.8 | 0.00 | 0.00 | 0.00 | 70 | 1014.6 |
| 20260508125117 | 10 | 262 | 3.2 | 4.8 | 0.00 | 0.00 | 0.00 | 72 | 1014.7 |
| 20260508124126 | 10 | 269 | 3.2 | 4.8 | 0.00 | 0.00 | 0.00 | 72 | 1014.6 |
| 20260508123223 | 10 | 231 | 4.8 | 9.7 | 0.00 | 0.00 | 0.00 | 72 | 1014.5 |
| 20260508122323 | 9 | 274 | 3.2 | 8.0 | 0.00 | 0.00 | 0.00 | 73 | 1014.6 |
| 20260508121423 | 8 | 223 | 4.8 | 4.8 | 0.00 | 0.00 | 0.00 | 73 | 1014.4 |
| 20260508120524 | 8 | 259 | 1.6 | 4.8 | 0.00 | 0.00 | 0.00 | 73 | 1014.5 |
| 20260508115624 | 8 | 304 | 0.0 | 1.6 | 0.00 | 0.00 | 0.00 | 75 | 1014.5 |
| 20260508114724 | 8 | 150 | 1.6 | 1.6 | 0.00 | 0.00 | 0.00 | 73 | 1014.5 |
| 20260508113856 | 8 | 254 | 3.2 | 4.8 | 0.00 | 0.00 | 0.00 | 71 | 1014.5 |
| 20260508113824 | 8 | 254 | 3.2 | 4.8 | 0.00 | 0.00 | 0.00 | 71 | 1014.5 |
| 20260508112926 | 8 | 188 | 3.2 | 4.8 | 0.00 | 0.00 | 0.00 | 71 | 1014.2 |
| 20260508111124 | 8 | 138 | 1.6 | 8.0 | 0.00 | 0.00 | 0.00 | 71 | 1014.1 |
| 20260508110224 | 8 | 217 | 4.8 | 4.8 | 0.00 | 0.00 | 0.00 | 71 | 1014.3 |
| 20260508105323 | 8 | 172 | 3.2 | 4.8 | 0.00 | 0.00 | 0.00 | 71 | 1014.2 |
| 20260508104424 | 8 | 165 | 1.6 | 4.8 | 0.00 | 0.00 | 0.00 | 71 | 1014.0 |
| 20260508103524 | 8 | 145 | 1.6 | 3.2 | 0.00 | 0.00 | 0.00 | 70 | 1013.9 |
| 20260508102623 | 8 | 182 | 3.2 | 4.8 | 0.00 | 0.00 | 0.00 | 70 | 1014.0 |
| 20260508101724 | 8 | 186 | 3.2 | 8.0 | 0.00 | 0.00 | 0.00 | 70 | 1014.1 |
| 20260508100826 | 8 | 189 | 1.6 | 4.8 | 0.00 | 0.00 | 0.00 | 70 | 1014.0 |
| 20260508095925 | 9 | 224 | 3.2 | 8.0 | 0.00 | 0.00 | 0.00 | 69 | 1014.0 |
| 20260508095024 | 9 | 235 | 3.2 | 8.0 | 0.00 | 0.00 | 0.00 | 68 | 1013.9 |
| 20260508094124 | 9 | 212 | 3.2 | 9.7 | 0.00 | 0.00 | 0.00 | 67 | 1013.8 |
| 20260508093224 | 9 | 234 | 4.8 | 8.0 | 0.00 | 0.00 | 0.00 | 68 | 1014.0 |
| 20260508092324 | 9 | 232 | 3.2 | 8.0 | 0.00 | 0.00 | 0.00 | 68 | 1014.2 |
| 20260508091424 | 9 | 229 | 1.6 | 4.8 | 0.00 | 0.00 | 0.00 | 68 | 1014.1 |
| 20260508090523 | 9 | 251 | 1.6 | 4.8 | 0.00 | 0.00 | 0.00 | 68 | 1014.2 |
| 20260508085624 | 9 | 241 | 1.6 | 3.2 | 0.00 | 0.00 | 0.00 | 68 | 1014.3 |
| 20260508084723 | 8 | 264 | 1.6 | 3.2 | 0.00 | 0.00 | 0.00 | 69 | 1014.3 |
| 20260508083823 | 8 | 262 | 1.6 | 4.8 | 0.00 | 0.00 | 0.00 | 69 | 1014.3 |
| 20260508082923 | 8 | 243 | 3.2 | 8.0 | 0.00 | 0.00 | 0.00 | 69 | 1014.4 |
| 20260508082023 | 8 | 262 | 1.6 | 4.8 | 0.00 | 0.00 | 0.00 | 70 | 1014.4 |
| 20260508081124 | 8 | 256 | 0.0 | 3.2 | 0.00 | 0.00 | 0.00 | 71 | 1014.3 |
| 20260508080225 | 9 | 291 | 1.6 | 4.8 | 0.00 | 0.00 | 0.00 | 71 | 1014.4 |
| 20260508075323 | 9 | 243 | 1.6 | 4.8 | 0.00 | 0.00 | 0.00 | 68 | 1014.2 |
| 20260508074424 | 9 | 241 | 4.8 | 8.0 | 0.00 | 0.00 | 0.00 | 69 | 1014.3 |
| 20260508073523 | 8 | 264 | 1.6 | 4.8 | 0.00 | 0.00 | 0.00 | 71 | 1014.4 |
| 20260508072624 | 9 | 259 | 1.6 | 4.8 | 0.00 | 0.00 | 0.00 | 69 | 1014.4 |
| 20260508071727 | 8 | 245 | 3.2 | 4.8 | 0.00 | 0.00 | 0.00 | 68 | 1014.5 |
| 20260508070824 | 8 | 251 | 1.6 | 3.2 | 0.00 | 0.00 | 0.00 | 69 | 1014.5 |
| 20260508065924 | 8 | 243 | 1.6 | 3.2 | 0.00 | 0.00 | 0.00 | 68 | 1014.6 |
| 20260508065023 | 8 | 217 | 0.0 | 1.6 | 0.00 | 0.00 | 0.00 | 68 | 1014.6 |
| 20260508064123 | 8 | 203 | 3.2 | 8.0 | 0.00 | 0.00 | 0.00 | 67 | 1014.8 |
| 20260508063224 | 8 | 197 | 1.6 | 4.8 | 0.00 | 0.00 | 0.00 | 67 | 1014.8 |
| 20260508062324 | 8 | 233 | 3.2 | 4.8 | 0.00 | 0.00 | 0.00 | 67 | 1014.8 |
| 20260508061426 | 8 | 234 | 3.2 | 4.8 | 0.00 | 0.00 | 0.00 | 68 | 1014.8 |
| 20260508060523 | 8 | 209 | 3.2 | 4.8 | 0.00 | 0.00 | 0.00 | 67 | 1014.8 |
| 20260508055701 | 9 | 219 | 1.6 | 8.0 | 0.00 | 0.00 | 0.00 | 67 | 1014.8 |
| 20260508055625 | 9 | 219 | 1.6 | 8.0 | 0.00 | 0.00 | 0.00 | 67 | 1014.8 |
| 20260508054724 | 8 | 218 | 1.6 | 4.8 | 0.00 | 0.00 | 0.00 | 67 | 1014.8 |
| 20260508053824 | 9 | 227 | 1.6 | 3.2 | 0.00 | 0.00 | 0.00 | 67 | 1014.9 |
| 20260508052923 | 9 | 217 | 1.6 | 4.8 | 0.00 | 0.00 | 0.00 | 67 | 1014.9 |
| 20260508052023 | 9 | 219 | 0.0 | 3.2 | 0.00 | 0.00 | 0.00 | 66 | 1015.0 |
| 20260508051124 | 9 | 229 | 4.8 | 8.0 | 0.00 | 0.00 | 0.00 | 66 | 1015.1 |
| 20260508050223 | 9 | 212 | 1.6 | 3.2 | 0.00 | 0.00 | 0.00 | 66 | 1015.0 |
| 20260508045323 | 9 | 210 | 3.2 | 4.8 | 0.00 | 0.00 | 0.00 | 66 | 1015.0 |
| 20260508044424 | 10 | 205 | 1.6 | 3.2 | 0.00 | 0.00 | 0.00 | 66 | 1015.1 |
| 20260508043523 | 10 | 189 | 1.6 | 4.8 | 0.00 | 0.00 | 0.00 | 66 | 1015.1 |
| 20260508042623 | 10 | 207 | 3.2 | 4.8 | 0.00 | 0.00 | 0.00 | 66 | 1015.1 |
| 20260508041724 | 10 | 160 | 3.2 | 4.8 | 0.00 | 0.00 | 0.00 | 66 | 1015.0 |
| 20260508040854 | 10 | 174 | 1.6 | 3.2 | 0.00 | 0.00 | 0.00 | 66 | 1015.0 |
| 20260508040822 | 10 | 174 | 1.6 | 3.2 | 0.00 | 0.00 | 0.00 | 66 | 1015.0 |
| 20260508035924 | 10 | 229 | 1.6 | 3.2 | 0.00 | 0.00 | 0.00 | 67 | 1015.0 |
| 20260508035026 | 10 | 158 | 1.6 | 1.6 | 0.00 | 0.00 | 0.00 | 66 | 1015.0 |